STARLINK-5764, 55602

Orbit data source: Space-Track

STARLINK-5764, 55602 is a payload satellite owned by SpaceX/Seattle (US) in LEO that was launched on Sun, 12 Feb 2023 UTC via an FALCON 9 launch vehicle from the Air Force Eastern Test Range (AFETR). Payload-class satellites include a variety of spacecraft equipped with specific instruments for various scientific and technological missions. These include communications satellites like Starlink; space stations such as the ISS; scientific satellites like the Hubble; Earth observation satellites from companies like Planet Labs, Umbra, and HawkEye 360; GPS; miniature CubeSats for education and research; and military/defense satellites.

Loading next visibility...
Identifier
55602, 2023-020AK
Orbit
LEO
Country
Flag of USUS
Related business
Manufacturer
SpaceX/Seattle
Mission
Operational Commercial Communications
Bus & Motor
STARLINK, Unknown motor
Mass
305 kg wet, ~290 kg dry
Launch date (UTC)
2023-02-12 (3 years ago)
Launch vehicle
FALCON 9
Launch site
Air Force Eastern Test Range (AFETR)
Object type
Payload
Rocket body
Debris
Shape & HBR
Box + 1 Pan, 4.4 m
Radar Cross Section
13.562 m², Large (>1 m²)

Expand to show TLE details & history
Last TLE update: 2 days ago

TLE from 2 days ago
0 STARLINK-5764
1 55602U 23020AK  25259.31240733  .00000840  00000-0  77260-4 0  9999
2 55602  43.0034 219.5755 0001018 273.7522  86.3204 15.02538043142838
Epoch: 2025-09-16T07:29Z
TLE epoch observation values (Epoch: 2025-09-16T07:29:51.993Z)
Latitude
-0.00001°
Longitude
111.60434°
Altitude
558.806 km
Speed
7.584 km/s
True Right ascension
14h 38m 18s
True Declination
0° 00' 00"
Sunlit
Object was in daylight at epoch
Visualization orbit readout
Latitude
Unknown
Longitude
Unknown
Altitude
Unknown
Speed
Unknown
Apparent Right ascension
Unknown
Apparent Declination
Unknown
Sunlit
N/A
Visualization observer readout
Local Sidereal Time
14:10:34
Azimuth
Unknown
Elevation
Unknown
Doppler factor
Unknown
Orbital elements
Apogee altitude
561.703 km
Perigee altitude
560.29 km
Semi-major axis
6,939.134 km
Eccentricity
0.0001
Inclination
43.0034°
RAAN
219.5755°
Arg. of periapsis
273.7522°
True anomaly
86.33204°
Mean anomaly
86.3204°
Eccentric anomaly
86.32622°
Mean motion
3.75479 °/min
Orbital period
95.88 mins
BSTAR
0.00007726
Loading maneuver chart data...
Computing Atmospheric mass density...
Loading historical data...
Loading historical data...
Loading historical data...
Loading historical data...
Loading historical data...
Loading historical data...
Loading historical data...

Documentation

Showing up to 5 results
|